Flag for India Weather past 2 weeks in Jalandhar, Punjab, India

Now
91 °F

Scattered clouds.


Feels Like: 111 °F
Forecast: 82 / 102 °F
Wind: 1 mph from North

Location: Amritsar Airport

Current Time: Aug 1, 2014 at 6:08:52 PM

Latest Report: Aug 1, 2014 at 5:30 PM


Visibility: 3 mi

Pressure: 29.47 "Hg

Humidity: 71%

Dew point: 81 °F

Location of JalandharLocation

Historic Weather in Jalandhar — Graph

°F

Jalandhar temperature yesterday

Maximum temperature yesterday: 95 °F (at 2:00 PM)
Minimum temperature yesterday: 79 °F (at 11:00 AM)
Average temperature yesterday: 88 °F

Past Weeks' High & Low Weather Summary

 TemperatureHumidityPressure
High97 °F (Jul 22, 1:30 PM)100% (Jul 17, 10:30 PM)29.68 "Hg (Jul 17, 10:30 PM)
Low70 °F (Jul 26, 6:00 PM)56% (Jul 20, 3:30 PM)29.36 "Hg (Jul 18, 5:00 PM)
Average86 °F84%29.53 "Hg
* Reported Jul 17 4:30 PM — Aug 1 4:30 PM, Jalandhar, Weather by CustomWeather, © 2014

Note: Actual official high and low records may vary slightly from our data, if they occured in-between our weather recording intervals... More about our weather records

Advertising

Jalandhar weather history for previous 24 hours

 ConditionsComfort  
Time TempWeatherWind HumidityBarometerVisibility
4:30 PM
Aug 1
91 °FScattered clouds.3 mph71%29.50 "Hg3 mi
3:30 PM91 °FFog.2 mph63%29.50 "Hg3 mi
2:30 PM91 °FFog.No wind67%29.53 "Hg3 mi
1:30 PM88 °FFog.6 mph70%29.56 "Hg3 mi
1:00 PM86 °FFog.7 mph75%29.56 "Hg3 mi
12:30 PM91 °FFog.9 mph67%29.59 "Hg3 mi
12:00 PM84 °FThunderstorms. More clouds than sun.6 mph89%29.62 "Hg2 mi
11:30 AM82 °FThunderstorms. More clouds than sun.15 mph94%29.62 "Hg2 mi
10:30 AM90 °FThunderstorms. More clouds than sun.No wind84%29.62 "Hg1 mi
10:00 AM88 °FFog.No wind84%29.62 "Hg2 mi
9:30 AM90 °FFog.No wind79%29.62 "Hg1 mi
9:00 AM88 °FFog.2 mph84%29.59 "Hg1 mi
8:30 AM86 °FFog.2 mph94%29.59 "Hg1 mi
7:30 AM84 °FFog.No wind100%29.59 "Hg1 mi
7:00 AM84 °FFog.No wind100%29.56 "Hg1 mi
6:30 AM82 °FFog.No wind100%29.56 "Hg1 mi
6:00 AM82 °FFog.No wind100%29.56 "Hg1 mi
5:30 AM82 °FFog.No wind100%29.56 "Hg1 mi
5:00 AM82 °FFog.No wind100%29.56 "Hg1 mi
4:00 AM82 °FFog.No wind100%29.56 "Hg2 mi
3:30 AM82 °FFog.No wind100%29.56 "Hg2 mi
3:00 AM82 °FFog.No wind100%29.56 "Hg2 mi
2:30 AM84 °FFog.No wind94%29.56 "Hg2 mi
2:00 AM84 °FFog.No wind94%29.56 "Hg2 mi
1:30 AM84 °FFog.No wind94%29.56 "Hg2 mi
1:00 AM84 °FFog.No wind89%29.56 "Hg2 mi
12:30 AM84 °FFog.No wind89%29.56 "Hg2 mi
12:00 AM86 °FFog.1 mph89%29.56 "Hg2 mi
11:30 PM
Jul 31
86 °FFog.6 mph89%29.56 "Hg2 mi
11:00 PM86 °FFog.No wind94%29.56 "Hg2 mi
10:30 PM88 °FFog.No wind84%29.56 "Hg2 mi
10:00 PM88 °FFog.No wind84%29.56 "Hg2 mi
9:30 PM88 °FFog.No wind84%29.56 "Hg2 mi
9:00 PM88 °FFog.No wind89%29.53 "Hg2 mi
8:30 PM88 °FFog.No wind89%29.53 "Hg2 mi
7:30 PM90 °FFog.1 mph79%29.50 "Hg3 mi
6:30 PM91 °FScattered clouds.1 mph75%29.47 "Hg4 mi
6:00 PM91 °FScattered clouds.5 mph71%29.50 "Hg4 mi
Weather by CustomWeather, © 2014

See weather overviewHow to use our weather pages